[[{"header":{"parameterUnit":"m.s-1","parameterCategory":1,"la1":30.2992,"la2":30.254,"lo1":-89.0895,"lo2":-89.0443,"dy":0.0025,"dx":0.0025,"nx":19,"ny":19,"refTime":"2026-03-08T21:00:00:Z","depth":0,"parameterNumber":2,"parameterNumberName":"U-component_of_WINDS"},"data":[0,0,0,-1.6722,-1.6722,-1.6701,-1.6701,-1.6681,-1.6681,0,0,0,0,0,0,0,0,0,0,0,-1.6733,-1.6733,-1.6722,-1.6722,-1.6701,-1.6701,-1.6681,-1.6681,0,0,0,0,0,0,0,0,0,0,0,-1.6733,-1.6733,-1.6733,-1.6722,-1.6701,-1.6701,-1.6681,-1.6694,0,0,0,0,0,0,0,0,0,0,-1.6713,-1.6727,-1.6733,-1.6733,-1.6722,-1.6701,-1.6701,-1.6695,-1.6693,-1.6693,0,-1.6695,0,-1.6688,-1.668,-1.668,0,0,0,-1.6718,-1.6729,-1.6719,-1.6733,-1.6721,-1.6701,-1.6709,-1.6694,-1.6692,-1.6691,-1.6695,-1.6694,-1.6687,-1.668,-1.668,-1.6694,-1.6694,0,0,-1.6719,-1.6731,-1.672,-1.6718,-1.6723,-1.671,-1.6709,-1.6693,-1.6697,-1.6695,-1.6693,-1.6687,-1.668,-1.668,-1.6694,-1.6694,0,0,0,-1.6725,-1.6732,-1.6723,-1.6719,-1.6715,-1.671,-1.6708,-1.6697,-1.6693,-1.6693,-1.6687,-1.668,-1.6679,-1.6693,-1.6694,-1.6717,0,0,0,-1.6725,-1.6736,-1.6724,-1.6731,-1.6716,-1.6706,-1.6713,-1.6695,-1.6692,-1.6687,-1.668,-1.6679,-1.6693,-1.6693,-1.6716,-1.6726,0,0,0,-1.6732,-1.6736,-1.6735,-1.6732,-1.6723,-1.6706,-1.6701,-1.6694,-1.6689,-1.668,-1.6679,-1.6693,-1.6693,-1.6715,-1.6724,-1.6733,0,0,0,-1.6743,-1.6756,-1.6736,-1.6748,-1.6724,-1.6722,-1.6701,-1.6699,-1.6694,-1.668,-1.6693,-1.6694,-1.6715,-1.6723,-1.6731,-1.6741,-1.6747,0,0,-1.6766,-1.6759,-1.6765,-1.6747,-1.6752,-1.6724,-1.6732,-1.6715,-1.6703,-1.6697,-1.6697,-1.6716,-1.6724,-1.6732,-1.6776,-1.678,0,0,0,-1.6777,-1.6781,-1.678,-1.6776,-1.6765,-1.6755,-1.6737,-1.6731,-1.6725,-1.6703,-1.6722,-1.6726,-1.673,-1.6734,-1.6738,-1.6741,-1.6696,-1.6696,-1.6696,-1.6825,-1.681,-1.6819,-1.6801,-1.6797,-1.6778,-1.6774,-1.6762,-1.6747,-1.6752,-1.6749,-1.6778,-1.6783,-1.6786,-1.6789,-1.6754,-1.6755,-1.6755,-1.6755,-1.6857,-1.686,-1.684,-1.6841,-1.6825,-1.6825,-1.6807,-1.6797,-1.6794,-1.6778,-1.6781,-1.6765,-1.6792,-1.6793,-1.6756,-1.6756,-1.6756,-1.6756,-1.6756,-1.6886,-1.6885,-1.6878,-1.6871,-1.6868,-1.6849,-1.6848,-1.6832,-1.6818,-1.6821,-1.6816,-1.6816,-1.6813,-1.682,-1.682,-1.6821,-1.6821,-1.6821,-1.6821,-1.6918,-1.691,-1.6911,-1.6901,-1.6896,-1.6889,-1.687,-1.6865,-1.6856,-1.6844,-1.6844,-1.6828,-1.6798,-1.679,-1.6822,-1.6822,-1.6822,-1.6822,-1.6821,-1.6953,-1.6943,-1.6945,-1.6941,-1.6927,-1.6924,-1.6906,-1.6897,-1.689,-1.689,-1.6873,-1.6854,-1.6845,-1.6842,-1.6835,-1.6878,-1.6878,-1.6878,-1.6878,-1.6977,-1.6972,-1.697,-1.6965,-1.6957,-1.6941,-1.6942,-1.6928,-1.6911,-1.6906,-1.6898,-1.6889,-1.6886,-1.6879,-1.6875,-1.6868,-1.6918,-1.6918,-1.6918,-1.6998,-1.6991,-1.6996,-1.698,-1.6969,-1.6958,-1.6959,-1.6953,-1.6932,-1.6919,-1.6902,-1.69,-1.6884,-1.688,-1.6865,-1.6859,-1.6847,0,0]},{"header":{"parameterUnit":"m.s-1","parameterCategory":1,"la1":30.2992,"la2":30.254,"lo1":-89.0895,"lo2":-89.0443,"dy":0.0025,"dx":0.0025,"nx":19,"ny":19,"refTime":"2026-03-08T21:00:00:Z","depth":0,"parameterNumber":3,"parameterNumberName":"V-component_of_WINDS"},"data":[0,0,0,1.956,1.9561,1.9571,1.9571,1.9578,1.9578,0,0,0,0,0,0,0,0,0,0,0,1.9553,1.9553,1.956,1.9561,1.9571,1.9571,1.9578,1.9578,0,0,0,0,0,0,0,0,0,0,0,1.9554,1.9553,1.9553,1.9561,1.9571,1.9571,1.9578,1.9572,0,0,0,0,0,0,0,0,0,0,1.9563,1.9553,1.9553,1.9553,1.9561,1.9571,1.9571,1.9572,1.9572,1.957,0,1.9568,0,1.9573,1.9578,1.9578,0,0,0,1.9563,1.9552,1.9559,1.9553,1.9561,1.9571,1.9567,1.9572,1.9573,1.9571,1.9568,1.9568,1.9573,1.9578,1.9578,1.956,1.956,0,0,1.9563,1.9553,1.9559,1.9559,1.9557,1.9567,1.9567,1.9573,1.9568,1.9568,1.9569,1.9573,1.9578,1.9578,1.956,1.956,0,0,0,1.9559,1.9552,1.9559,1.9559,1.9561,1.9567,1.9568,1.9568,1.9571,1.9569,1.9573,1.9578,1.9578,1.956,1.956,1.9542,0,0,0,1.9559,1.955,1.9559,1.9553,1.9561,1.9565,1.9563,1.9571,1.9572,1.9573,1.9578,1.9578,1.9561,1.956,1.9543,1.9535,0,0,0,1.9554,1.955,1.955,1.9552,1.9556,1.9565,1.9568,1.9571,1.9574,1.9578,1.9578,1.9561,1.956,1.9544,1.9536,1.9529,0,0,0,1.9546,1.9532,1.955,1.9536,1.9556,1.9554,1.9568,1.9566,1.9567,1.9578,1.9561,1.956,1.9544,1.9537,1.9529,1.9521,1.9516,0,0,1.9523,1.9529,1.9522,1.9538,1.953,1.9553,1.9542,1.9551,1.9559,1.9559,1.9559,1.9543,1.9536,1.9529,1.9493,1.9489,0,0,0,1.9511,1.9506,1.9506,1.9508,1.9516,1.9522,1.9534,1.9538,1.9539,1.9558,1.9538,1.9534,1.953,1.9527,1.9524,1.9521,1.9558,1.9558,1.9558,1.9464,1.9478,1.9468,1.9484,1.9485,1.9499,1.9502,1.951,1.9521,1.9516,1.9516,1.9493,1.9488,1.9486,1.9484,1.9512,1.9512,1.9512,1.9512,1.9433,1.9429,1.9447,1.9445,1.946,1.9457,1.9471,1.948,1.9481,1.9493,1.949,1.9503,1.9481,1.948,1.9511,1.9511,1.9511,1.9511,1.9511,1.9404,1.9404,1.9411,1.9417,1.9419,1.9436,1.9436,1.9449,1.9461,1.9458,1.9461,1.9461,1.9464,1.9459,1.9459,1.9459,1.9459,1.9459,1.9459,1.9371,1.9379,1.9379,1.9389,1.9393,1.94,1.9417,1.9421,1.9429,1.9439,1.9439,1.9452,1.9477,1.9483,1.9457,1.9458,1.9458,1.9458,1.9458,1.9335,1.9346,1.9345,1.9349,1.9364,1.9367,1.9385,1.9393,1.9399,1.9399,1.9414,1.943,1.9436,1.9439,1.9444,1.941,1.941,1.941,1.941,1.9311,1.9316,1.932,1.9327,1.9335,1.9352,1.9352,1.9365,1.9381,1.9386,1.9393,1.9401,1.9403,1.9408,1.9412,1.9417,1.9376,1.9376,1.9376,1.929,1.9298,1.9294,1.9311,1.9324,1.9335,1.9336,1.9344,1.9364,1.9375,1.939,1.9391,1.9405,1.9409,1.9419,1.9424,1.9434,0,0]}]]